Virginia Beach, VA

5:08 AM EDT on August 26, 2016 (GMT -0400)
Oceana Naval Air Station

Weather History for KNTU - February, 2014

Change the Weather History Date:

Friday, February 14, 2014

  Actual Average Record
Temperature  
Mean Temperature 48 °F -  
Max Temperature 60 °F 50 °F 70 °F (2011)
Min Temperature 36 °F 33 °F 19 °F (2015)
Degree Days  
Heating Degree Days 17    
Moisture  
Dew Point 28 °F    
Average Humidity 51    
Maximum Humidity 86    
Minimum Humidity 23    
Precipitation  
Precipitation 0.00 in - - ()
Sea Level Pressure  
Sea Level Pressure 29.68 in    
Wind  
Wind Speed 16 mph (SW)    
Max Wind Speed 24 mph    
Max Gust Speed 34 mph    
Visibility 10 miles    
Events      
Averages and records for this station are not official NWS values.
T = Trace of Precipitation, MM = Missing Value Source: NWS Daily Summary

Daily Weather History Graph

Daily Weather History Graph

Search for Another Location

Airport or City:

Trip Planner

Search our weather history database for the weather conditions in past years. The results will help you decide how hot, cold, wet, or windy it might be!

Date:

Astronomy

Feb. 14, 2014 Rise Set
Actual Time 6:53 AM EST 5:43 PM EST
Civil Twilight 6:27 AM EST 6:10 PM EST
Nautical Twilight 5:56 AM EST 6:40 PM EST
Astronomical Twilight 5:26 AM EST 7:10 PM EST
Moon 5:43 PM EST (2/14) 6:20 AM EST (2/14)
Length of Visible Light 11h 42m
Length of Day
10h 49m
Full, 100% of the Moon is Illuminated
Feb 14
Full
Feb 14
Full
Feb 22
Last Quarter
Mar 1
New
Mar 8
First Quarter

Hourly Weather History & Observations

Time (EST) Temp. Windchill Dew Point Humidity Pressure Visibility Wind Dir Wind Speed Gust Speed Precip Events Conditions
12:19 AM 37.9 °F 28.2 °F 34.0 °F 86% 29.46 in 10.0 mi WSW 18.4 mph - 0.00 in   Overcast
12:56 AM 37.9 °F 27.6 °F 33.1 °F 83% 29.50 in 10.0 mi West 20.7 mph 26.5 mph 0.00 in   Scattered Clouds
1:56 AM 37.9 °F 27.9 °F 30.9 °F 76% 29.53 in 10.0 mi West 19.6 mph 27.6 mph N/A   Clear
2:56 AM 37.0 °F 27.4 °F 28.9 °F 73% 29.57 in 10.0 mi WSW 17.3 mph - N/A   Clear
3:56 AM 37.0 °F 28.1 °F 28.0 °F 70% 29.60 in 10.0 mi WSW 15.0 mph - N/A   Clear
4:56 AM 36.0 °F 27.1 °F 28.0 °F 73% 29.62 in 10.0 mi WSW 13.8 mph - N/A   Mostly Cloudy
5:56 AM 37.0 °F 27.0 °F 27.0 °F 67% 29.68 in 10.0 mi WSW 18.4 mph - N/A   Scattered Clouds
6:56 AM 36.0 °F 26.7 °F 26.1 °F 67% 29.70 in 10.0 mi WSW 15.0 mph - N/A   Scattered Clouds
7:56 AM 39.9 °F 32.5 °F 26.1 °F 58% 29.72 in 10.0 mi WSW 12.7 mph - N/A   Mostly Cloudy
8:56 AM 42.1 °F 33.6 °F 28.0 °F 58% 29.73 in 10.0 mi WSW 18.4 mph - N/A   Partly Cloudy
9:56 AM 46.9 °F - 28.9 °F 50% 29.72 in 10.0 mi WSW 16.1 mph 25.3 mph N/A   Clear
10:56 AM 52.0 °F - 28.9 °F 41% 29.70 in 10.0 mi WSW 19.6 mph 28.8 mph N/A   Clear
11:56 AM 55.0 °F - 28.9 °F 37% 29.70 in 10.0 mi WSW 24.2 mph 29.9 mph N/A   Clear
12:56 PM 57.9 °F - 26.1 °F 30% 29.68 in 10.0 mi West 20.7 mph 34.5 mph N/A   Clear
1:56 PM 59.0 °F - 25.0 °F 27% 29.68 in 10.0 mi WSW 12.7 mph 27.6 mph N/A   Scattered Clouds
2:56 PM 60.1 °F - 25.0 °F 26% 29.69 in 10.0 mi SW 16.1 mph - N/A   Scattered Clouds
3:56 PM 60.1 °F - 21.9 °F 23% 29.70 in 10.0 mi SW 17.3 mph 26.5 mph N/A   Scattered Clouds
4:56 PM 57.9 °F - 25.0 °F 28% 29.72 in 10.0 mi SW 11.5 mph - N/A   Scattered Clouds
5:56 PM 53.1 °F - 25.0 °F 34% 29.75 in 10.0 mi SW 8.1 mph - N/A   Scattered Clouds
6:56 PM 52.0 °F - 25.0 °F 35% 29.77 in 10.0 mi SSW 4.6 mph - N/A   Scattered Clouds
7:56 PM 48.9 °F - 27.0 °F 43% 29.78 in 10.0 mi South 5.8 mph - N/A   Scattered Clouds
8:56 PM 50.0 °F - 28.9 °F 44% 29.78 in 10.0 mi SSW 10.4 mph - N/A   Scattered Clouds
9:56 PM 48.9 °F - 30.0 °F 48% 29.78 in 10.0 mi SSW 10.4 mph - N/A   Mostly Cloudy
10:56 PM 46.9 °F - 30.0 °F 52% 29.77 in 10.0 mi SW 9.2 mph - N/A   Mostly Cloudy
11:56 PM 45.0 °F 42.6 °F 30.0 °F 56% 29.75 in 10.0 mi SSW 4.6 mph - N/A   Mostly Cloudy